TimeCST,TemperatureF,Dew PointF,Humidity,Sea Level PressureIn,VisibilityMPH,Wind Direction,Wind SpeedMPH,Gust SpeedMPH,PrecipitationIn,Events,Conditions,WindDirDegrees,DateUTC
12:53 AM,46.9,37.9,71,29.81,10.0,SSW,13.8,-,N/A,,Clear,200,2012-01-31 06:53:00
1:53 AM,45.0,37.9,76,29.81,10.0,SSW,11.5,-,N/A,,Clear,200,2012-01-31 07:53:00
2:53 AM,43.0,37.9,82,29.81,10.0,SSW,10.4,-,N/A,,Clear,200,2012-01-31 08:53:00
3:53 AM,42.1,37.9,85,29.80,10.0,SSW,11.5,-,N/A,,Clear,210,2012-01-31 09:53:00
4:53 AM,42.1,37.9,85,29.79,10.0,South,10.4,-,N/A,,Clear,190,2012-01-31 10:53:00
5:53 AM,41.0,37.9,89,29.80,10.0,SSW,10.4,-,N/A,,Clear,200,2012-01-31 11:53:00
6:53 AM,42.1,39.9,92,29.80,9.0,SSW,10.4,-,N/A,,Partly Cloudy,200,2012-01-31 12:53:00
7:09 AM,44.6,42.8,93,29.79,8.0,SSW,10.4,-,N/A,,Mostly Cloudy,210,2012-01-31 13:09:00
7:53 AM,46.0,44.1,93,29.80,7.0,SSW,15.0,-,N/A,,Scattered Clouds,200,2012-01-31 13:53:00
9:15 AM,50.0,46.4,87,29.81,8.0,SW,10.4,-,N/A,,Mostly Cloudy,230,2012-01-31 15:15:00
9:53 AM,52.0,48.0,86,29.81,10.0,SW,13.8,-,N/A,,Overcast,230,2012-01-31 15:53:00
10:53 AM,53.1,46.0,77,29.83,10.0,WSW,15.0,24.2,N/A,,Overcast,240,2012-01-31 16:53:00
11:53 AM,55.9,45.0,67,29.82,10.0,SW,16.1,-,N/A,,Mostly Cloudy,230,2012-01-31 17:53:00
12:08 PM,53.6,44.6,72,29.82,10.0,WSW,19.6,26.5,N/A,,Scattered Clouds,250,2012-01-31 18:08:00
12:53 PM,57.9,43.0,58,29.82,10.0,West,12.7,-,N/A,,Clear,260,2012-01-31 18:53:00
1:53 PM,59.0,37.0,44,29.83,10.0,West,15.0,-,N/A,,Clear,280,2012-01-31 19:53:00
2:53 PM,59.0,33.1,38,29.83,10.0,NW,10.4,-,N/A,,Clear,320,2012-01-31 20:53:00
3:53 PM,59.0,33.1,38,29.86,10.0,WNW,11.5,-,N/A,,Clear,300,2012-01-31 21:53:00
4:53 PM,53.1,33.1,47,29.89,10.0,WNW,8.1,-,N/A,,Clear,300,2012-01-31 22:53:00
5:53 PM,46.9,32.0,56,29.94,10.0,WNW,6.9,-,N/A,,Clear,300,2012-01-31 23:53:00
6:53 PM,43.0,30.9,62,29.96,10.0,WNW,8.1,-,N/A,,Clear,300,2012-02-01 00:53:00
7:53 PM,42.1,30.9,65,29.98,10.0,West,8.1,-,N/A,,Clear,280,2012-02-01 01:53:00
8:53 PM,42.1,30.9,65,30.01,10.0,WNW,5.8,-,N/A,,Clear,300,2012-02-01 02:53:00
9:53 PM,36.0,28.9,76,30.03,10.0,WNW,6.9,-,N/A,,Clear,290,2012-02-01 03:53:00
10:53 PM,37.9,30.0,73,30.04,10.0,WNW,5.8,-,N/A,,Clear,300,2012-02-01 04:53:00
11:53 PM,36.0,28.9,76,30.06,10.0,WNW,6.9,-,N/A,,Clear,300,2012-02-01 05:53:00